weather.gov     
National Weather Service

Regional Weather Roundup
NWS Homepage
This page is being discontinued on March 12, 2014.
The same data is available at this site. Please update your bookmarks.
Thank you, and we apologize for the inconvenience.
Please send an email to SR-SRH.Webmaster@noaa.gov with any concerns.


Current Version
Previous Version:    01  02  03  04  05  06  07  08  09  10  11  12  13  14  15  16  17  18  19  20  21  22  23  24  25  26  27  28  29  30  
   31  32  33  34  35  36  37  38  39  40  41  42  43  44  45  46  47  48  49  50  51  52  53  54  55  56  57  58  59  60  
[Printable]
142
ASUS44 KLIX 202110
RWRLIX
NEW ORLEANS REGIONAL WEATHER ROUNDUP
NATIONAL WEATHER SERVICE NEW ORLEANS LA
400 PM CDT MON OCT 20 2014

NOTE: "FAIR" INDICATES FEW OR NO CLOUDS BELOW 12,000 FEET WITH NO
      SIGNIFICANT WEATHER AND/OR OBSTRUCTIONS TO VISIBILITY.
      SKY/WX - SKY CONDITION AND SIGNIFICANT WEATHER.
      TMP - AIR TEMPERATURE.     DP    - DEWPOINT TEMPERATURE.
      RH  - RELATIVE HUMIDITY.   PRES  - PRESSURE.
      HI  - HEAT INDEX.          WCI   - WIND CHILL INDEX.

*  THESE STATIONS ARE NOT NWS OR FAA STATIONS AND ARE NOT UNDER
   NWS QUALITY CONTROL.

LAZ038-040-048-061>063-065>067-069-202200-
SOUTHEAST LOUISIANA

CITY           SKY/WX    TMP DP  RH WIND       PRES   REMARKS
N.O. AUDUBON     N/A     79  59  49 MISG        N/A
N.O. INTL ARPT MOSUNNY   77  54  44 NE6       29.99F
N.O. LAKEFRONT SUNNY     78  55  44 NW7       30.00F
N.O. DOWNTOWN*   N/A     77  54  44 N5        30.00S
SLIDELL        MOSUNNY   75  55  49 NE3       29.99S
BATON ROUGE    MOSUNNY   78  53  41 VRB3      30.01S
BOOTHVILLE     CLOUDY    75  66  73 NE9       29.99F
BELLE CHASSE   MOSUNNY   79  55  43 NE6       29.98F
BOGALUSA*        N/A     79  46  31 CALM      30.02S
NEW ROADS*       N/A     76  54  46 CALM      30.01S
GONZALES*        N/A     78  54  42 CALM      29.99S
HAMMOND*       PTSUNNY   79  46  31 NW3       30.02S
HOUMA*         SUNNY     81  55  41 NE5       29.98F
PORT FOURCHON* CLEAR     77  61  57 NE10      30.01F

$$

MSZ070-080>082-202200-
SOUTHERN MISSISSIPPI

CITY           SKY/WX    TMP DP  RH WIND       PRES   REMARKS
MCCOMB         MOSUNNY   75  50  41 CALM      30.01F
GULFPORT       MOSUNNY   79  48  33 N3        29.98F
BILOXI         SUNNY     79  53  40 SW7       29.98F
PASCAGOULA     SUNNY     79  47  32 CALM      29.98F
STENNIS ARPT*  SUNNY     79  45  29 VRB3      30.00S

$$

COASTAL OBSERVATIONS
LAKE AND NEARSHORE STATIONS

STATION/POSITION TIME  TEMP    WIND        PRES    WAVE
                       AIR SEA DIR/SP/G            HT/PER
                 (UTC) (F)     (DEG/KT/KT) (MB)    (FT/S)
PASCAGOULA       2100   79     200/  7/  9 1015.0
WAVELAND YACHT   2100   76     360/  2/  3 1015.0
GRAND ISLE       2100   76 78   70/  7/  9 1015.9
SOUTHWEST PASS   2100   83 85              1015.4
NEW CANAL        2100   74 73   10/  6/  7 1016.2
SHELL BEACH      2100   74 70   40/  7/  7 1015.5

OFFSHORE STATIONS

STATION/POSITION TIME  TEMP    WIND        PRES    WAVE
                       AIR SEA DIR/SP/G            HT/PER
                 (UTC) (F)     (DEG/KT/KT) (MB)    (FT/S)
64 S DAUPHIN ISL 2027   76 81   30/  4/  8 1015.6

$$





U.S. Dept. of Commerce
NOAA National Weather Service
1325 East West Highway
Silver Spring, MD 20910
E-mail: w-nws.webmaster@noaa.gov
Page last modified: May 16, 2007
NATIONAL WEATHER SERVICE: for Safety, for Work, for Fun - FOR LIFE